User: anonymous   Login
Location: Unspecified
(49.2170°N, 0.0000°E)
Time: 08:08:11
(UTC+00:00)
Language:

Transit 4A - Orbit

View from above orbital plane
View from above orbital plane
View from above satellite
View from above satellite

Ground track
Ground track

The orbit data is extracted from the following two-line orbital elements,

1   116U 61015A   19288.92314718 -.00000074 +00000-0 +18900-5 0  9999
2   116 066.8087 088.4247 0076512 186.0012 174.0159 13.91759880957657
Epoch (UTC): 15 October 2019 22:09:19
Eccentricity: 0.0076512
inclination: 66.8087°
perigee height: 866 km
apogee height: 978 km
right ascension of ascending node: 88.4247°
argument of perigee: 186.0012°
revolutions per day: 13.91759880
mean anomaly at epoch: 174.0159°
orbit number at epoch: 95765

The dashed part of the orbit path shows where the satellite is in the earth's shadow,  

DLR